Time,TemperatureF,DewpointF,PressureIn,WindDirection,WindDirectionDegrees,WindSpeedMPH,WindSpeedGustMPH,Humidity,HourlyPrecipIn,Conditions,Clouds,dailyrainin,SoftwareType,DateUTC
2013-02-22 09:00:00,81.4,71.1,30.00,East,82,7.0,18.0,71,0.00,,,0.00,Wunderground v.1.15,2013-02-22 13:00:00,
2013-02-22 09:10:00,81.4,70.7,30.01,East,79,8.0,10.0,70,0.00,,,0.00,Wunderground v.1.15,2013-02-22 13:10:00,
2013-02-22 09:20:00,82.2,70.6,30.01,ESE,103,7.0,7.0,68,0.00,,,0.00,Wunderground v.1.15,2013-02-22 13:20:00,
2013-02-22 09:30:00,82.2,70.6,30.01,ESE,117,8.0,8.0,68,0.00,,,0.00,Wunderground v.1.15,2013-02-22 13:30:00,
2013-02-22 09:40:00,82.0,70.0,30.02,SE,131,9.0,9.0,67,0.00,,,0.00,Wunderground v.1.15,2013-02-22 13:40:00,
2013-02-22 09:50:00,82.6,71.0,30.02,East,98,8.0,8.0,68,0.00,,,0.00,Wunderground v.1.15,2013-02-22 13:50:00,
2013-02-22 10:00:00,82.6,70.5,30.02,East,81,8.0,9.0,67,0.00,,,0.00,Wunderground v.1.15,2013-02-22 14:00:00,
2013-02-22 10:10:00,82.8,70.7,30.03,East,86,9.0,9.0,67,0.00,,,0.00,Wunderground v.1.15,2013-02-22 14:10:00,
2013-02-22 10:20:00,83.0,70.9,30.03,East,98,8.0,8.0,67,0.00,,,0.00,Wunderground v.1.15,2013-02-22 14:20:00,
2013-02-22 10:30:00,83.6,70.6,30.03,East,87,8.0,10.0,65,0.00,,,0.00,Wunderground v.1.15,2013-02-22 14:30:00,
2013-02-22 10:40:00,83.2,69.8,30.03,East,99,10.0,10.0,64,0.00,,,0.00,Wunderground v.1.15,2013-02-22 14:40:00,
2013-02-22 10:50:00,83.0,70.5,30.03,East,94,10.0,10.0,66,0.00,,,0.00,Wunderground v.1.15,2013-02-22 14:50:00,
2013-02-22 11:00:00,83.0,70.0,30.03,ENE,76,10.0,10.0,65,0.00,,,0.00,Wunderground v.1.15,2013-02-22 15:00:00,
2013-02-22 11:10:00,83.4,70.8,30.02,ESE,113,9.0,9.0,66,0.00,,,0.00,Wunderground v.1.15,2013-02-22 15:10:00,
2013-02-22 11:20:00,84.1,71.1,30.02,East,94,8.0,8.0,65,0.00,,,0.00,Wunderground v.1.15,2013-02-22 15:20:00,
2013-02-22 11:30:00,83.8,70.8,30.02,East,88,9.0,10.0,65,0.00,,,0.00,Wunderground v.1.15,2013-02-22 15:30:00,
2013-02-22 11:40:00,83.6,70.6,30.02,East,82,9.0,9.0,65,0.00,,,0.00,Wunderground v.1.15,2013-02-22 15:40:00,
2013-02-22 11:50:00,83.0,70.5,30.01,East,90,10.0,13.0,66,0.00,,,0.00,Wunderground v.1.15,2013-02-22 15:50:00,
2013-02-22 12:00:00,83.4,70.4,30.01,East,88,9.0,10.0,65,0.00,,,0.00,Wunderground v.1.15,2013-02-22 16:00:00,
2013-02-22 12:10:00,84.7,71.2,30.01,ESE,110,8.0,8.0,64,0.00,,,0.00,Wunderground v.1.15,2013-02-22 16:10:00,
2013-02-22 12:20:00,84.3,71.2,30.01,East,82,8.0,11.0,65,0.00,,,0.00,Wunderground v.1.15,2013-02-22 16:20:00,
2013-02-22 12:30:00,83.2,71.5,30.01,East,95,9.0,10.0,68,0.00,,,0.00,Wunderground v.1.15,2013-02-22 16:30:00,
2013-02-22 12:40:00,84.0,71.9,30.01,ESE,107,8.0,15.0,67,0.00,,,0.00,Wunderground v.1.15,2013-02-22 16:40:00,
2013-02-22 12:50:00,84.1,71.1,30.00,East,80,9.0,9.0,65,0.00,,,0.00,Wunderground v.1.15,2013-02-22 16:50:00,
2013-02-22 13:00:00,84.0,70.5,30.00,ENE,72,9.0,16.0,64,0.00,,,0.00,Wunderground v.1.15,2013-02-22 17:00:00,
2013-02-22 13:10:00,84.3,70.8,30.00,East,93,8.0,13.0,64,0.00,,,0.00,Wunderground v.1.15,2013-02-22 17:10:00,
2013-02-22 13:20:00,84.0,71.0,29.99,East,100,9.0,9.0,65,0.00,,,0.00,Wunderground v.1.15,2013-02-22 17:20:00,
2013-02-22 13:30:00,84.0,70.5,29.99,SE,132,9.0,13.0,64,0.00,,,0.00,Wunderground v.1.15,2013-02-22 17:30:00,
2013-02-22 13:40:00,84.0,71.0,29.98,ESE,119,9.0,9.0,65,0.00,,,0.00,Wunderground v.1.15,2013-02-22 17:40:00,
2013-02-22 13:50:00,84.0,70.5,29.98,East,90,9.0,9.0,64,0.00,,,0.00,Wunderground v.1.15,2013-02-22 17:50:00,
2013-02-22 14:00:00,84.0,72.7,29.98,East,99,9.0,9.0,69,0.00,,,0.00,Wunderground v.1.15,2013-02-22 18:00:00,
2013-02-22 14:10:00,84.5,71.0,29.98,East,100,8.0,9.0,64,0.00,,,0.00,Wunderground v.1.15,2013-02-22 18:10:00,
2013-02-22 14:20:00,83.6,71.5,29.97,East,82,9.0,9.0,67,0.00,,,0.00,Wunderground v.1.15,2013-02-22 18:20:00,
2013-02-22 14:30:00,81.8,70.6,29.97,NE,53,7.0,7.0,69,0.00,,,0.00,Wunderground v.1.15,2013-02-22 18:30:00,
2013-02-22 14:40:00,81.2,69.6,29.97,ENE,78,8.0,8.0,68,0.00,,,0.00,Wunderground v.1.15,2013-02-22 18:40:00,
2013-02-22 14:50:00,80.5,70.2,29.97,ENE,67,6.0,6.0,71,0.00,,,0.00,Wunderground v.1.15,2013-02-22 18:50:00,
2013-02-22 15:00:00,81.2,70.5,29.97,East,82,8.0,9.0,70,0.00,,,0.00,Wunderground v.1.15,2013-02-22 19:00:00,
2013-02-22 15:10:00,80.7,70.0,29.96,ENE,65,7.0,7.0,70,0.00,,,0.00,Wunderground v.1.15,2013-02-22 19:10:00,
2013-02-22 15:20:00,80.3,69.6,29.96,ENE,62,7.0,7.0,70,0.00,,,0.00,Wunderground v.1.15,2013-02-22 19:20:00,
2013-02-22 15:30:00,79.8,70.0,29.96,ENE,77,7.0,10.0,72,0.00,,,0.00,Wunderground v.1.15,2013-02-22 19:30:00,
2013-02-22 15:40:00,79.8,70.4,29.96,NE,45,5.0,5.0,73,0.00,,,0.00,Wunderground v.1.15,2013-02-22 19:40:00,
2013-02-22 15:50:00,79.0,69.6,29.95,NE,36,6.0,6.0,73,0.00,,,0.00,Wunderground v.1.15,2013-02-22 19:50:00,
2013-02-22 16:00:00,79.6,70.2,29.95,NE,47,9.0,9.0,73,0.00,,,0.00,Wunderground v.1.15,2013-02-22 20:00:00,
2013-02-22 16:10:00,81.4,70.7,29.95,NNE,26,9.0,9.0,70,0.00,,,0.00,Wunderground v.1.15,2013-02-22 20:10:00,
2013-02-22 16:20:00,81.8,70.6,29.95,North,360,10.0,11.0,69,0.00,,,0.00,Wunderground v.1.15,2013-02-22 20:20:00,
2013-02-22 16:30:00,81.1,70.4,29.95,NE,39,9.0,12.0,70,0.00,,,0.00,Wunderground v.1.15,2013-02-22 20:30:00,
2013-02-22 16:40:00,80.7,69.6,29.95,NNE,30,10.0,11.0,69,0.00,,,0.00,Wunderground v.1.15,2013-02-22 20:40:00,
2013-02-22 16:50:00,80.1,69.8,29.95,NE,36,12.0,12.0,71,0.00,,,0.00,Wunderground v.1.15,2013-02-22 20:50:00,
2013-02-22 17:00:00,80.5,69.8,29.95,NNE,27,9.0,9.0,70,0.00,,,0.00,Wunderground v.1.15,2013-02-22 21:00:00,
2013-02-22 17:10:00,79.9,68.8,29.95,NNE,26,9.0,12.0,69,0.00,,,0.00,Wunderground v.1.15,2013-02-22 21:10:00,
2013-02-22 17:20:00,79.8,69.6,29.96,NNE,24,9.0,10.0,71,0.00,,,0.00,Wunderground v.1.15,2013-02-22 21:20:00,
2013-02-22 17:30:00,79.2,69.4,29.96,NNE,28,9.0,9.0,72,0.00,,,0.00,Wunderground v.1.15,2013-02-22 21:30:00,
2013-02-22 17:40:00,79.0,70.0,29.96,NE,37,8.0,8.0,74,0.00,,,0.00,Wunderground v.1.15,2013-02-22 21:40:00,
2013-02-22 17:50:00,78.3,69.7,29.96,NNE,30,9.0,9.0,75,0.00,,,0.00,Wunderground v.1.15,2013-02-22 21:50:00,
2013-02-22 18:00:00,77.6,69.0,29.96,NE,46,9.0,9.0,75,0.00,,,0.00,Wunderground v.1.15,2013-02-22 22:00:00,
2013-02-22 18:10:00,77.2,69.0,29.96,ENE,63,6.0,12.0,76,0.00,,,0.00,Wunderground v.1.15,2013-02-22 22:10:00,
2013-02-22 18:20:00,76.8,68.7,29.96,NE,40,7.0,7.0,76,0.00,,,0.00,Wunderground v.1.15,2013-02-22 22:20:00,
2013-02-22 18:30:00,76.7,69.3,29.96,NE,42,7.0,7.0,78,0.00,,,0.00,Wunderground v.1.15,2013-02-22 22:30:00,
2013-02-22 18:40:00,76.3,69.3,29.96,NE,42,6.0,8.0,79,0.00,,,0.00,Wunderground v.1.15,2013-02-22 22:40:00,
2013-02-22 18:50:00,76.1,69.1,29.96,NE,49,5.0,5.0,79,0.00,,,0.00,Wunderground v.1.15,2013-02-22 22:50:00,
2013-02-22 19:00:00,75.8,69.2,29.96,NE,51,5.0,5.0,80,0.00,,,0.00,Wunderground v.1.15,2013-02-22 23:00:00,
2013-02-22 19:10:00,75.6,69.0,29.96,NE,55,5.0,5.0,80,0.00,,,0.00,Wunderground v.1.15,2013-02-22 23:10:00,
2013-02-22 19:20:00,75.4,68.8,29.97,NE,45,6.0,6.0,80,0.00,,,0.00,Wunderground v.1.15,2013-02-22 23:20:00,
2013-02-22 19:30:00,75.4,68.8,29.97,NE,49,6.0,6.0,80,0.00,,,0.00,Wunderground v.1.15,2013-02-22 23:30:00,
2013-02-22 19:40:00,75.3,68.7,29.97,ENE,61,5.0,9.0,80,0.00,,,0.00,Wunderground v.1.15,2013-02-22 23:40:00,